EW7175 Weather Reports


Display with metric or nautical units.
time (UTC)temp
F
wind
direction
speed
MPH
gust
MPH
rain 1hr
in
rain 24hr
in
rain mn
in
humidity
%
barometer
mb
20260902021521 81 320 0.0 0.0 0.00 0.00 0.00 83 1011.1
20260902020021 81 320 0.0 0.0 0.00 0.00 0.00 82 1011.0
20260902014533 82 320 0.0 0.0 0.00 0.00 0.00 81 1010.7
20260902013020 82 320 0.0 0.0 0.00 0.00 0.00 81 1010.6
20260902011532 82 320 0.0 0.0 0.00 0.00 0.00 79 1010.6
20260902010029 82 321 0.0 0.0 0.00 0.00 0.00 79 1010.7
20260902004526 83 5 0.0 0.0 0.00 0.00 0.00 78 1010.7
20260902003020 82 42 0.0 0.0 0.00 0.00 0.00 79 1010.8
20260902001521 82 42 0.0 0.0 0.00 0.00 0.00 80 1010.8
20260902000026 82 44 0.0 0.0 0.00 0.00 0.00 80 1010.6
20260901234538 82 37 0.0 0.0 0.00 0.00 0.00 80 1010.7
20260901233014 81 348 0.0 0.0 0.00 0.00 0.00 83 1011.0
20260901231514 81 27 0.0 0.0 0.00 0.00 0.00 84 1011.0
20260901230013 81 46 0.0 9.0 0.00 0.00 0.00 82 1011.3
20260901224513 85 75 0.0 0.0 0.00 0.00 0.00 72 1011.5
20260901223018 88 17 0.0 0.0 0.00 0.00 0.00 68 1011.7
20260901221521 93 11 0.0 0.0 0.00 0.00 0.00 55 1011.2
20260901220013 92 57 0.0 6.0 0.00 0.00 0.00 56 1011.1
20260901214510 92 26 1.0 4.0 0.00 0.00 0.00 60 1011.1
20260901213006 91 65 1.0 5.0 0.00 0.00 0.00 62 1011.2
20260901211510 91 296 0.0 0.0 0.00 0.00 0.00 62 1011.2
20260901210003 91 309 0.0 0.0 0.00 0.00 0.00 63 1011.1
20260901204504 91 28 0.0 0.0 0.00 0.00 0.00 64 1011.1
20260901203113 91 311 0.0 0.0 0.00 0.00 0.00 64 1011.3
20260901201556 90 360 0.0 0.0 0.00 0.00 0.00 65 1011.8
20260901200101 89 32 0.0 0.0 0.00 0.00 0.00 67 1012.3
20260901194603 89 51 0.0 0.0 0.00 0.00 0.00 66 1012.6
20260901193053 89 13 0.0 0.0 0.00 0.00 0.00 65 1012.7
20260901191549 90 28 0.0 0.0 0.00 0.00 0.00 65 1012.5
20260901184548 90 350 0.0 0.0 0.00 0.00 0.00 65 1012.7
20260901183048 89 23 0.0 0.0 0.00 0.00 0.00 68 1012.8
20260901181553 89 346 0.0 0.0 0.00 0.00 0.00 68 1013.1
20260901180043 89 51 0.0 0.0 0.00 0.00 0.00 70 1013.3
20260901174539 88 16 0.0 0.0 0.00 0.00 0.00 70 1013.5
20260901173055 88 24 0.0 0.0 0.00 0.00 0.00 70 1013.9
20260901171536 88 307 0.0 0.0 0.00 0.00 0.00 71 1014.2
20260901170036 87 324 0.0 0.0 0.00 0.00 0.00 72 1014.4
20260901164538 87 288 0.0 0.0 0.00 0.00 0.00 72 1014.4
20260901163033 87 16 0.0 0.0 0.00 0.00 0.00 72 1014.4
20260901161532 87 16 0.0 0.0 0.00 0.00 0.00 72 1014.3
20260901160030 87 24 0.0 0.0 0.00 0.00 0.00 72 1014.1
20260901154526 86 5 0.0 0.0 0.00 0.00 0.00 75 1014.2
20260901153036 86 298 0.0 0.0 0.00 0.00 0.00 75 1014.2
20260901151525 86 301 0.0 0.0 0.00 0.00 0.00 74 1014.2
20260901150025 86 319 0.0 0.0 0.00 0.00 0.00 74 1014.3
20260901144533 86 15 0.0 0.0 0.00 0.00 0.00 76 1014.3
20260901143021 85 29 0.0 0.0 0.00 0.00 0.00 77 1014.2
20260901141517 84 30 0.0 0.0 0.00 0.00 0.00 80 1014.4
20260901140014 83 20 0.0 0.0 0.00 0.00 0.00 83 1014.4
20260901134513 82 26 0.0 0.0 0.00 0.00 0.00 86 1014.5
20260901133018 81 344 0.0 0.0 0.00 0.00 0.00 88 1014.4
20260901131510 80 344 0.0 0.0 0.00 0.00 0.00 89 1014.1
20260901130008 80 360 0.0 0.0 0.00 0.00 0.00 89 1014.0
20260901124507 79 5 0.0 0.0 0.00 0.00 0.00 90 1013.9
20260901123009 79 175 0.0 0.0 0.00 0.00 0.00 91 1013.6
20260901121506 79 175 0.0 0.0 0.00 0.00 0.00 91 1013.4
20260901120001 79 184 0.0 0.0 0.00 0.00 0.00 91 1013.4
20260901114501 79 184 0.0 0.0 0.00 0.00 0.00 91 1013.3
20260901113058 79 184 0.0 0.0 0.00 0.00 0.00 91 1013.2
20260901111554 79 184 0.0 0.0 0.00 0.00 0.00 91 1013.3
20260901110051 79 184 0.0 0.0 0.00 0.00 0.00 91 1013.2
20260901104550 79 184 0.0 0.0 0.00 0.00 0.00 91 1013.2
20260901103056 79 184 0.0 0.0 0.00 0.00 0.00 91 1013.0
20260901101553 79 184 0.0 0.0 0.00 0.00 0.00 91 1012.9
20260901100047 79 184 0.0 0.0 0.00 0.00 0.00 90 1013.0
20260901094546 79 184 0.0 0.0 0.00 0.00 0.00 90 1013.0
20260901093111 80 184 0.0 0.0 0.00 0.00 0.00 89 1013.1
20260901091559 80 184 0.0 0.0 0.00 0.00 0.00 89 1013.0
20260901090043 80 184 0.0 0.0 0.00 0.00 0.00 88 1013.1
20260901084542 80 184 0.0 0.0 0.00 0.00 0.00 88 1013.0
20260901083046 80 184 0.0 0.0 0.00 0.00 0.00 88 1013.3
20260901081541 80 184 0.0 0.0 0.00 0.00 0.00 87 1013.3
20260901080044 80 184 0.0 0.0 0.00 0.00 0.00 87 1013.3
20260901074537 80 184 0.0 0.0 0.00 0.00 0.00 86 1013.4
20260901073036 80 184 0.0 0.0 0.00 0.00 0.00 86 1013.4
20260901071535 81 184 0.0 0.0 0.00 0.00 0.00 85 1013.4
20260901070036 81 184 0.0 0.0 0.00 0.00 0.00 85 1013.4
20260901064537 81 184 0.0 0.0 0.00 0.00 0.00 84 1013.3
20260901063035 82 184 0.0 0.0 0.00 0.00 0.00 83 1013.5
20260901061530 82 184 0.0 0.0 0.00 0.00 0.00 83 1013.5
20260901060028 82 184 0.0 0.0 0.00 0.00 0.00 82 1013.7
20260901054527 82 184 0.0 0.0 0.00 0.00 0.00 81 1013.5
20260901053026 82 184 0.0 0.0 0.00 0.00 0.00 80 1013.4
20260901051524 83 184 0.0 0.0 0.00 0.00 0.00 81 1013.4
20260901050022 83 184 0.0 0.0 0.00 0.00 0.00 81 1013.4
20260901044522 83 184 0.0 0.0 0.00 0.00 0.00 80 1013.2
20260901043022 83 184 0.0 0.0 0.00 0.00 0.00 79 1013.1
20260901041521 83 184 0.0 0.0 0.00 0.00 0.00 79 1013.2
20260901040021 83 184 0.0 0.0 0.00 0.00 0.00 80 1013.1
20260901034519 83 184 0.0 0.0 0.00 0.00 0.00 79 1012.9
20260901033036 84 184 0.0 0.0 0.00 0.00 0.00 79 1012.8
20260901031520 84 184 0.0 0.0 0.00 0.00 0.00 78 1012.6
20260901030022 84 184 0.0 0.0 0.00 0.00 0.00 75 1012.4
20260901024520 85 184 0.0 0.0 0.00 0.00 0.00 75 1012.3
20260901023018 85 184 0.0 0.0 0.00 0.00 0.00 73 1012.1